Weather History for Mineola, TX

Change the Weather History Date:

Monday, September 23, 2013

  Actual Average (KTYR) Record (KTYR)
Temperature  
Mean Temperature 68 °F 74 °F  
Max Temperature 84 °F 84 °F 98 °F (1939)
Min Temperature 53 °F 63 °F 41 °F (1983)
Degree Days  
Heating Degree Days 0 0  
Month to date heating degree days 0  
Since 1 July heating degree days 0  
Cooling Degree Days 4 9  
Month to date cooling degree days 285  
Year to date cooling degree days 2207  
Growing Degree Days 18 (Base 50)    
Moisture  
Dew Point 57 °F    
Average Humidity 71    
Maximum Humidity 100    
Minimum Humidity 35    
Precipitation  
Precipitation 0.00 in 0.11 in 2.31 in (1940)
Month to date precipitation 2.62  
Year to date precipitation 31.88  
Snow  
Snow 0.00 in - - ()
Month to date snowfall  
Since 1 July snowfall  
Since 1 September snowfall  
Snow Depth -    
Sea Level Pressure  
Sea Level Pressure 29.85 in    
Wind  
Wind Speed 1 mph (SE)    
Max Wind Speed 8 mph    
Max Gust Speed -    
Visibility 9 miles    
Events      
T = Trace of Precipitation, MM = Missing Value Source: NWS Daily Summary

Daily Weather History Graph

Daily Weather History Graph

Search for Another Location

Airport:

Trip Planner

Search our weather history database for the weather conditions in past years. The results will help you decide how hot, cold, wet, or windy it might be!

Date:

Astronomy

Sep. 23, 2013 Rise Set
Actual Time 7:10 AM CDT 7:16 PM CDT
Civil Twilight 6:46 AM CDT 7:41 PM CDT
Nautical Twilight 6:17 AM CDT 8:10 PM CDT
Astronomical Twilight 5:48 AM CDT 8:39 PM CDT
Moon 10:05 PM CDT (9/23) 11:16 AM CDT (9/23)
Length of Visible Light 12h 55m
Length of Day
12h 05m
Waning Gibbous, 81% of the Moon is Illuminated
Sep 23
Waning Gibbous
Sep 26
Last Quarter
Oct 4
New
Oct 11
First Quarter
Oct 18
Full

Hourly Weather History & Observations

Time (CDT) Temp. Heat Index Dew Point Humidity Pressure Visibility Wind Dir Wind Speed Gust Speed Precip Events Conditions
12:15 AM 60.8 °F - 55.4 °F 82% 29.86 in 10.0 mi Calm Calm - N/A   Clear
12:35 AM 59.0 °F - 55.4 °F 88% 29.86 in 10.0 mi Calm Calm - N/A   Clear
12:55 AM 59.0 °F - 55.4 °F 88% 29.86 in 10.0 mi Calm Calm - N/A   Clear
1:15 AM 57.2 °F - 55.4 °F 94% 29.86 in 10.0 mi Calm Calm - N/A   Clear
1:35 AM 57.2 °F - 55.4 °F 94% 29.86 in 10.0 mi Calm Calm - N/A   Clear
1:55 AM 57.2 °F - 55.4 °F 94% 29.86 in 10.0 mi Calm Calm - N/A   Clear
2:15 AM 57.2 °F - 55.4 °F 94% 29.87 in 10.0 mi Calm Calm - N/A   Clear
2:35 AM 57.2 °F - 55.4 °F 94% 29.87 in 10.0 mi Calm Calm - N/A   Clear
2:55 AM 55.4 °F - 55.4 °F 100% 29.87 in 10.0 mi Calm Calm - N/A   Clear
3:15 AM 55.4 °F - 55.4 °F 100% 29.87 in 10.0 mi Calm Calm - N/A   Clear
3:35 AM 55.4 °F - 55.4 °F 100% 29.87 in 10.0 mi Calm Calm - N/A   Clear
3:55 AM 55.4 °F - 55.4 °F 100% 29.87 in 10.0 mi Calm Calm - N/A   Clear
4:15 AM 55.4 °F - 55.4 °F 100% 29.87 in 10.0 mi Calm Calm - N/A   Clear
4:35 AM 55.4 °F - 55.4 °F 100% 29.87 in 10.0 mi Calm Calm - N/A   Clear
4:55 AM 55.4 °F - 55.4 °F 100% 29.87 in 10.0 mi Calm Calm - N/A   Clear
5:15 AM 55.4 °F - 55.4 °F 100% 29.87 in 9.0 mi Calm Calm - N/A   Clear
5:35 AM 55.4 °F - 55.4 °F 100% 29.87 in 10.0 mi Calm Calm - N/A   Clear
5:55 AM 55.4 °F - 53.6 °F 94% 29.87 in 10.0 mi Calm Calm - N/A   Clear
6:15 AM 53.6 °F - 53.6 °F 100% 29.87 in 10.0 mi Calm Calm - N/A   Clear
6:35 AM 53.6 °F - 53.6 °F 100% 29.88 in 10.0 mi Calm Calm - N/A   Clear
6:55 AM 53.6 °F - 53.6 °F 100% 29.88 in 9.0 mi Calm Calm - N/A   Clear
7:15 AM 55.4 °F - 55.4 °F 100% 29.89 in 8.0 mi Calm Calm - N/A   Clear
7:35 AM 53.6 °F - 53.6 °F 100% 29.89 in 7.0 mi Calm Calm - N/A   Clear
7:55 AM 55.4 °F - 55.4 °F 100% 29.88 in 9.0 mi Calm Calm - N/A   Clear
8:15 AM 57.2 °F - 57.2 °F 100% 29.89 in 10.0 mi Calm Calm - N/A   Clear
8:35 AM 60.8 °F - 59.0 °F 94% 29.90 in 8.0 mi Calm Calm - N/A   Clear
8:55 AM 62.6 °F - 57.2 °F 82% 29.89 in 10.0 mi Calm Calm - N/A   Clear
9:15 AM 64.4 °F - 57.2 °F 77% 29.89 in 10.0 mi Calm Calm - N/A   Clear
9:35 AM 66.2 °F - 57.2 °F 73% 29.89 in 10.0 mi ESE 3.5 mph - N/A   Clear
9:55 AM 69.8 °F - 57.2 °F 64% 29.89 in 10.0 mi Calm Calm - N/A   Clear
10:15 AM 71.6 °F - 57.2 °F 60% 29.89 in 10.0 mi Calm Calm - N/A   Clear
10:35 AM 73.4 °F - 55.4 °F 53% 29.89 in 10.0 mi East 3.5 mph - N/A   Clear
10:55 AM 75.2 °F - 57.2 °F 53% 29.90 in 10.0 mi SE 4.6 mph - N/A   Clear
11:15 AM 75.2 °F - 55.4 °F 50% 29.90 in 10.0 mi ESE 8.1 mph - N/A   Clear
11:35 AM 75.2 °F - 55.4 °F 50% 29.90 in 10.0 mi SE 6.9 mph - N/A   Clear
11:55 AM 75.2 °F - 55.4 °F 50% 29.89 in 10.0 mi SE 3.5 mph - N/A   Clear
12:15 PM 77.0 °F - 55.4 °F 47% 29.88 in 10.0 mi SSE 5.8 mph - N/A   Clear
12:35 PM 78.8 °F - 53.6 °F 42% 29.87 in 10.0 mi SSE 4.6 mph - N/A   Clear
1:15 PM 78.8 °F - 53.6 °F 42% 29.86 in 10.0 mi South 4.6 mph - N/A   Clear
1:35 PM 80.6 °F 80.3 °F 53.6 °F 39% 29.85 in 10.0 mi Calm Calm - N/A   Clear
1:55 PM 80.6 °F 80.3 °F 53.6 °F 39% 29.84 in 10.0 mi SSE 4.6 mph - N/A   Clear
2:15 PM 82.4 °F - 51.8 °F 35% 29.83 in 10.0 mi SSE 4.6 mph - N/A   Clear
2:35 PM 82.4 °F 81.4 °F 53.6 °F 37% 29.82 in 10.0 mi Calm Calm - N/A   Clear
2:55 PM 82.4 °F - 51.8 °F 35% 29.82 in 10.0 mi Calm Calm - N/A   Clear
3:15 PM 84.2 °F 82.8 °F 53.6 °F 35% 29.81 in 10.0 mi Calm Calm - N/A   Partly Cloudy
3:35 PM 82.4 °F 81.7 °F 55.4 °F 39% 29.81 in 10.0 mi NNE 3.5 mph - N/A   Partly Cloudy
3:55 PM 84.2 °F 83.0 °F 55.4 °F 37% 29.80 in 10.0 mi Calm Calm - N/A   Clear
4:15 PM 84.2 °F 83.0 °F 55.4 °F 37% 29.79 in 10.0 mi Calm Calm - N/A   Clear
4:35 PM 84.2 °F 83.0 °F 55.4 °F 37% 29.79 in 10.0 mi Calm Calm - N/A   Clear
4:55 PM 84.2 °F 83.0 °F 55.4 °F 37% 29.79 in 10.0 mi Calm Calm - N/A   Clear
5:15 PM 84.2 °F 83.5 °F 57.2 °F 40% 29.78 in 10.0 mi Calm Calm - N/A   Clear
5:35 PM 84.2 °F 83.5 °F 57.2 °F 40% 29.78 in 10.0 mi Calm Calm - N/A   Clear
5:55 PM 84.2 °F 83.5 °F 57.2 °F 40% 29.78 in 10.0 mi SSE 5.8 mph - N/A   Clear
6:15 PM 84.2 °F 83.5 °F 57.2 °F 40% 29.79 in 10.0 mi ESE 3.5 mph - N/A   Clear
6:35 PM 82.4 °F 82.0 °F 57.2 °F 42% 29.80 in 10.0 mi Calm Calm - N/A   Clear
6:55 PM 80.6 °F 81.5 °F 60.8 °F 51% 29.80 in 10.0 mi Calm Calm - N/A   Clear
7:15 PM 78.8 °F - 62.6 °F 57% 29.80 in 5.0 mi Calm Calm - N/A   Haze
7:35 PM 75.2 °F - 62.6 °F 65% 29.80 in 7.0 mi Calm Calm - N/A   Clear
7:55 PM 73.4 °F - 62.6 °F 69% 29.80 in 9.0 mi Calm Calm - N/A   Clear
8:15 PM 71.6 °F - 62.6 °F 73% 29.81 in 10.0 mi Calm Calm - N/A   Clear
8:35 PM 71.6 °F - 62.6 °F 73% 29.82 in 7.0 mi Calm Calm - N/A   Clear
8:55 PM 71.6 °F - 62.6 °F 73% 29.83 in 9.0 mi Calm Calm - N/A   Clear
9:15 PM 69.8 °F - 62.6 °F 78% 29.83 in 5.0 mi Calm Calm - N/A   Haze
9:35 PM 69.8 °F - 62.6 °F 78% 29.84 in 7.0 mi Calm Calm - N/A   Clear
9:55 PM 69.8 °F - 62.6 °F 78% 29.84 in 4.0 mi Calm Calm - N/A   Haze
10:15 PM 69.8 °F - 64.4 °F 83% 29.85 in 10.0 mi Calm Calm - N/A   Partly Cloudy
10:35 PM 69.8 °F - 62.6 °F 78% 29.86 in 10.0 mi Calm Calm - N/A   Mostly Cloudy
10:55 PM 69.8 °F - 64.4 °F 83% 29.86 in 8.0 mi Calm Calm - N/A   Overcast
11:15 PM 69.8 °F - 64.4 °F 83% 29.87 in 10.0 mi Calm Calm - N/A   Mostly Cloudy
11:35 PM 69.8 °F - 64.4 °F 83% 29.87 in 8.0 mi Calm Calm - N/A   Scattered Clouds
11:55 PM 68.0 °F - 62.6 °F 83% 29.86 in 7.0 mi Calm Calm - N/A   Clear